Location: Dessau
(51.7984°N, 12.2168°E)
Time: 22:30:40
(UTC+01:00)

ISS - Visible Passes

Search period start: 25 February 2018 00:00
Search period end: 07 March 2018 00:00
Orbit: 403 x 406 km, 51.6° (Epoch: 26 February)

Date Brightness Start Highest point End Pass type
(mag) Time Alt. Az. Time Alt. Az. Time Alt. Az.
26 Feb -0.8 06:26:05 10° S 06:27:42 13° SE 06:29:19 10° ESE visible
28 Feb -1.5 06:16:43 10° SSW 06:19:23 23° SSE 06:22:03 10° E visible
01 Mar -1.1 05:25:19 10° S 05:27:20 15° SE 05:29:20 10° ESE visible
02 Mar -2.6 06:08:02 10° SW 06:11:06 38° SSE 06:14:11 10° E visible
03 Mar -2.0 05:17:00 15° SSW 05:18:57 26° SSE 05:21:46 10° E visible
04 Mar -1.5 04:26:55 18° SE 04:26:55 18° SE 04:29:09 10° E visible
04 Mar -3.4 05:59:38 10° WSW 06:02:52 59° SSE 06:06:06 10° E visible
05 Mar -3.0 05:09:24 28° SSW 05:10:38 43° SSE 05:13:46 10° E visible
06 Mar -2.0 04:19:09 27° SE 04:19:09 27° SE 04:21:21 10° E visible
06 Mar -3.8 05:51:48 13° WSW 05:54:40 79° SSE 05:57:57 10° E visible
